Regional Weather Roundup
Issued by NWS

Home | Current Version | Previous Version | Graphics & Text | Print | Product List | Glossary On
Versions: 1 2 3 4 5 6 7 8 9 10 11 12 13 14 15 16 17 18 19 20 21 22 23 24 25 26 27 28 29 30 31 32 33 34 35 36 37 38 39 40 41 42 43 44 45 46 47 48 49 50
000
ASUS45 KTFX 252104
RWRMT
MONTANA HOURLY WEATHER ROUNDUP
NATIONAL WEATHER SERVICE GREAT FALLS MT
204 PM MST SUN JAN 25 2015

NOTE: "FAIR" INDICATES FEW OR NO CLOUDS BELOW 12000 FEET WITH NO
SIGNIFICANT WEATHER AND/OR OBSTRUCTIONS TO VISIBILITY.

* THESE STATIONS ARE NOT UNDER NWS QUALITY CONTROL. THEY DO NOT
   REPORT WEATHER SUCH AS PRECIPITATION OR FOG.

MTZ001>007-043-252200-
WEST OF THE DIVIDE
CITY           SKY/WX    TMP DP  RH WIND       PRES   REMARKS
KALISPELL      PTSUNNY   43  36  76 SW6       30.13F
MISSOULA       CLOUDY    36  34  92 CALM      30.20F
BUTTE          PTCLDY    54  27  35 W8        30.23F
MULLAN PASS    PTSUNNY   43  32  65 W7G16     30.23F
* ANACONDA     SUNNY     55  30  39 S17G24     N/A
* ESSEX        N/A       51  39  64 SE4G9      N/A
* LINCOLN      N/A       58  30  35 SW6G15     N/A
* LOOKOUT PASS N/A       49  35  59 W5         N/A
* POLSON       N/A       48  36  63 S2G8       N/A
* RONAN APT    PTSUNNY   50  50 100 N/A        N/A
* SEELEY LAKE  N/A       55  31  40 W5G15      N/A
* THOMP F APT  PTSUNNY   33  28  82 SW2        N/A
$$

MTZ008-052>055-252200-
SOUTHWEST MONTANA
CITY           SKY/WX    TMP DP  RH WIND       PRES   REMARKS
BOZEMAN        CLOUDY    43  34  71 CALM      30.20F
DILLON         PTCLDY    55  25  31 SW24G31   30.24F
* W YELLOWSTON CLOUDY    34  29  82 SW5G13     N/A   WCI  29
* THREE FORKS  CLOUDY    45  45 100 N/A        N/A
* BOULDER HILL N/A       49  27  43 S9         N/A
* MONIDA PASS  N/A       29  29 100 SE11       N/A   WCI  19
* RAYNOLDS PAS N/A       29  11  47 SE23       N/A   WCI  15
* WHITEHALL    N/A       60  30  32 SW20G30    N/A
* WISE RIVER   N/A       53  27  37 W15G22     N/A
$$

MTZ009>010-012-014-046-048-049-054-252200-
EAST SLOPES AND CENTRAL MONTANA
CITY           SKY/WX    TMP DP  RH WIND       PRES   REMARKS
CUT BANK       PTSUNNY   55  34  45 W25       29.95F
GREAT FALLS    CLOUDY    57  32  39 SW28G36   30.01R
HELENA         PTSUNNY   54  34  47 CALM      30.15F
MALMSTROM AFB  CLOUDY    57  32  39 SW29G38   30.01F
* DEARBORN     N/A       59  30  33 SE19G26    N/A
* EAST GLACIER N/A       52  30  43 SW24G31    N/A
* MONARCH      N/A       49  26  41 W11G18     N/A
* PENDROY      N/A       54  33  45 NW14G19    N/A
* ROGERS PASS  N/A       50  29  44 SE12G22    N/A
* SWEET GRASS  N/A       56  33  42 W20G30     N/A
$$

MTZ011-013-016-021-035-040-045-047-050-051-252200-
NORTH CENTRAL MONTANA
CITY           SKY/WX    TMP DP  RH WIND       PRES   REMARKS
HAVRE          PTSUNNY   50  39  66 SW21      29.88R
LEWISTOWN      PTCLDY    52  30  43 CALM      29.98S
* N BAR RANCH  SUNNY     57  28  33 NW39G55   29.91F
* CHESTER      N/A       53  35  51 SW6        N/A
* DENTON       N/A       53  31  43 W35G44     N/A
* GEYSER       N/A       56  28  34 W41G53     N/A
* JUDITH GAP   N/A       54  33  45 SW17G28    N/A
* LOMA         N/A       56  36  47 SW14G20    N/A
$$

MTZ017>020-022>027-061-062-252200-
NORTHEAST MONTANA
CITY           SKY/WX    TMP DP  RH WIND       PRES   REMARKS
GLASGOW        PTCLDY    46  34  63 SW7       29.82F
GLENDIVE       PTCLDY    46  32  58 S10       29.87F
JORDAN         PTCLDY    54  39  57 W10       29.87F
SIDNEY         PTCLDY    45  30  56 S10       29.87F
WOLF POINT     PTCLDY    46  34  63 W3        29.84F
* BEAVER HILL  N/A       43  30  60 SW12G18    N/A
* CIRCLE       N/A       50  42  74 SW6G11     N/A
* LINDSAY DVD  N/A       50  37  61 W16G22     N/A
* NAVAJO       N/A       41  31  68 SW11G17    N/A
* SACO         N/A       52  39  61 SW10       N/A
$$

MTZ028>042-056>058-252200-
SOUTHCENTRAL AND SOUTHEAST MONTANA
CITY           SKY/WX    TMP DP  RH WIND       PRES   REMARKS
BAKER          PTSUNNY   46  34  63 W13       29.89F
BILLINGS       PTCLDY    63  30  29 W26G35    29.98F
LIVINGSTON     PTCLDY    57  28  33 SW28G37   30.09F
MILES CITY     PTSUNNY   46  36  68 SW3       29.90F
* LAUREL APT   PTCLDY    63  30  29 W23G36     N/A
* ROUNDUP APT  PTCLDY    63  30  29 SW18G24    N/A
* ALZADA       N/A       49  35  59 W11G16     N/A
* HYSHAM       N/A       55  33  43 W9G17      N/A
* LAME DEER    N/A       50  33  52 W16G23     N/A
* REED POINT   N/A       62  33  34 W19G32     N/A
$$

REGIONAL REPORTS...DAKOTAS
CITY           SKY/WX    TMP DP  RH WIND       PRES   REMARKS
WILLISTON      PTSUNNY   41  30  65 S7        29.86F
DICKINSON      CLOUDY    43  30  60 S9        29.87F
CROSBY         CLOUDY    36  36 100 S15       29.82F WCI  27
WATFORD CITY   SUNNY     41  32  70 S7        29.84F
BISMARCK       CLOUDY    37  32  82 W3        29.94F
GRAND FORKS    CLOUDY    25  14  63 S5        29.98F WCI  19
FARGO          PTCLDY    27  16  63 CALM      30.02F
BUFFALO SD     CLOUDY    48  28  46 SW14      29.86F
RAPID CITY     CLOUDY    48  19  32 S8        29.97F
$$

REGIONAL REPORTS...WYOMING/IDAHO/WASHINGTON
CITY           SKY/WX    TMP DP  RH WIND       PRES   REMARKS
GILLETTE       PTSUNNY   52  34  50 SW10      30.00F
SHERIDAN       SUNNY     50  36  59 S3        29.99F
CODY           SUNNY     57  27  32 W16G24    30.08S
YELLOWSTONE LA PTCLDY    34  27  76 VRB3      30.37F
SALMON         PTCLDY    36  27  70 N3        30.36F
MULLAN PASS    PTSUNNY   43  32  65 W7G16     30.23S
SAND POINT     CLOUDY    45  45 100 SW5       30.22S
SPOKANE        PTSUNNY   54  45  72 SW8       30.20F

$$



USA.gov is the U.S. government's official web portal to all federal, state and local government web resources and services.